Location: Olda
(45.8833°N, 9.5500°E)
Time: 14:25:35
(UTC+00:00)

Cosmos 2322 - Pass Details

Date: 03 March 2021
Orbit: 842 x 853 km, 71.0° (Epoch: 15 April)

Event Time Altitude Azimuth Distance (km) Brightness Sun altitude
Rises 19:43:39 0° 216° (SW) 3,410 7.0 -26.9°
Reaches altitude 10° 19:46:08 10° 220° (SW) 2,478 6.3 -27.3°
Maximum altitude 19:51:45 60° 300° (WNW) 973 4.2 -28.3°
Drops below altitude 10° 19:57:25 10° 20° (NNE) 2,491 6.1 -29.2°
Sets 19:59:55 0° 25° (NNE) 3,429 6.9 -29.6°
